Wink, TX

5:05 AM CDT on May 21, 2018 (GMT -0500)
Winkler County

Weather History for KINK - May, 2013

Change the Weather History Date:

Tuesday, May 28, 2013

  Actual Average Record
Temperature  
Mean Temperature 82 °F -  
Max Temperature 91 °F 92 °F 108 °F (2011)
Min Temperature 72 °F 62 °F 49 °F (1973)
Cooling Degree Days 16    
Growing Degree Days 32 (Base 50)    
Moisture  
Dew Point 63 °F    
Average Humidity 57    
Maximum Humidity 78    
Minimum Humidity 34    
Precipitation  
Precipitation 0.00 in - - ()
Sea Level Pressure  
Sea Level Pressure 29.56 in    
Wind  
Wind Speed 18 mph (SE)    
Max Wind Speed 25 mph    
Max Gust Speed 33 mph    
Visibility 10 miles    
Events      
Averages and records for this station are not official NWS values.
T = Trace of Precipitation, MM = Missing Value Source: NWS Daily Summary

Daily Weather History Graph

Daily Weather History Graph

Search for Another Location

Airport or City:

Astronomy

May. 28, 2013 Rise Set
Actual Time 6:49 AM CDT 8:51 PM CDT
Civil Twilight 6:21 AM CDT 9:18 PM CDT
Nautical Twilight 5:48 AM CDT 9:52 PM CDT
Astronomical Twilight 5:12 AM CDT 10:28 PM CDT
Moon No Moon Rise 10:34 AM CDT (5/28)
Length of Visible Light 14h 57m
Length of Day
14h 02m
Waning Gibbous, 82% of the Moon is Illuminated
May 28
Waning Gibbous
May 31
Last Quarter
Jun 8
New
Jun 16
First Quarter
Jun 23
Full

Hourly Weather History & Observations

Time (CDT) Temp. Heat Index Dew Point Humidity Pressure Visibility Wind Dir Wind Speed Gust Speed Precip Events Conditions
12:53 AM 77.0 °F - 63.0 °F 62% 29.63 in 10.0 mi SSE 21.9 mph 29.9 mph N/A   Clear
1:53 AM 75.9 °F - 63.0 °F 64% 29.62 in 10.0 mi SSE 13.8 mph 24.2 mph N/A   Clear
2:53 AM 75.9 °F - 63.0 °F 64% 29.60 in 10.0 mi SSE 17.3 mph - N/A   Clear
3:53 AM 75.0 °F - 63.0 °F 66% 29.57 in 10.0 mi SSE 17.3 mph 23.0 mph N/A   Clear
4:53 AM 75.0 °F - 62.1 °F 64% 29.57 in 10.0 mi SSE 15.0 mph - N/A   Clear
5:53 AM 73.9 °F - 62.1 °F 66% 29.57 in 10.0 mi SSE 12.7 mph - N/A   Clear
6:53 AM 73.0 °F - 64.0 °F 73% 29.60 in 10.0 mi SSE 15.0 mph - N/A   Clear
7:53 AM 72.0 °F - 64.9 °F 78% 29.60 in 10.0 mi SSE 15.0 mph - N/A   Clear
8:53 AM 73.0 °F - 64.9 °F 76% 29.62 in 10.0 mi SSE 16.1 mph 25.3 mph N/A   Clear
9:53 AM 75.0 °F - 64.9 °F 71% 29.63 in 10.0 mi SE 18.4 mph 25.3 mph N/A   Clear
10:53 AM 78.1 °F - 63.0 °F 60% 29.62 in 10.0 mi SSE 20.7 mph 27.6 mph N/A   Clear
11:53 AM 79.0 °F - 63.0 °F 58% 29.62 in 10.0 mi SE 20.7 mph 27.6 mph N/A   Clear
12:53 PM 84.0 °F 84.9 °F 63.0 °F 49% 29.59 in 10.0 mi SSE 17.3 mph 27.6 mph N/A   Clear
1:53 PM 86.0 °F 86.3 °F 62.1 °F 44% 29.58 in 10.0 mi SSE 17.3 mph 24.2 mph N/A   Clear
2:53 PM 88.0 °F 87.9 °F 61.0 °F 40% 29.56 in 10.0 mi SSE 12.7 mph 18.4 mph N/A   Clear
3:53 PM 91.0 °F 90.9 °F 61.0 °F 36% 29.53 in 10.0 mi ESE 13.8 mph 23.0 mph N/A   Clear
4:53 PM 91.0 °F 90.2 °F 59.0 °F 34% 29.49 in 10.0 mi SE 17.3 mph 23.0 mph N/A   Clear
5:53 PM 89.1 °F 89.3 °F 62.1 °F 40% 29.49 in 10.0 mi SE 23.0 mph 33.4 mph N/A   Clear
6:53 PM 84.9 °F 85.4 °F 62.1 °F 46% 29.48 in 10.0 mi SE 25.3 mph 32.2 mph N/A   Clear
7:53 PM 82.9 °F 83.7 °F 62.1 °F 49% 29.49 in 10.0 mi SE 23.0 mph 29.9 mph N/A   Clear
8:53 PM 80.1 °F 81.5 °F 63.0 °F 56% 29.51 in 10.0 mi SE 21.9 mph 32.2 mph N/A   Clear
9:53 PM 79.0 °F - 63.0 °F 58% 29.52 in 10.0 mi SE 21.9 mph 29.9 mph N/A   Clear
10:53 PM 78.1 °F - 63.0 °F 60% 29.53 in 10.0 mi SE 20.7 mph 28.8 mph N/A   Clear
11:53 PM 78.1 °F - 63.0 °F 60% 29.53 in 10.0 mi SSE 21.9 mph 31.1 mph N/A   Clear